Location: Winthrop
(48.4780°N, 120.1850°W)
Time: 15:54:41
(UTC-07:00)

Vanguard 3 - Pass Details

Date: 09 February 2023
Orbit: 508 x 3249 km, 33.3° (Epoch: 22 March)

Event Time Altitude Azimuth Distance (km) Brightness Sun altitude
Rises 22:57:47 0° 265° (W) 5,193 11.5 -52.4°
Reaches altitude 10° 23:02:06 10° 249° (WSW) 4,640 11.0 -52.8°
Enters shadow 23:03:35 13° 243° (WSW) 4,524 10.9 -52.9°
